Regional Weather Roundup
Issued by NWS Little Rock, AR

Home | Current Version | Previous Version | Graphics & Text | Print | Product List | Glossary On
Versions: 1 2 3 4 5 6 7 8 9 10 11 12 13 14 15 16 17 18 19 20 21 22 23 24 25 26 27 28 29 30 31 32 33 34 35 36 37 38 39 40 41 42 43 44 45 46 47 48 49 50
000
ASUS44 KLZK 190405
RWRLZK

WEATHER ROUNDUP FOR ARKANSAS
NATIONAL WEATHER SERVICE LITTLE ROCK AR
1000 PM CST THU JAN 18 2018

NOTE: "FAIR" INDICATES FEW OR NO CLOUDS BELOW 12,000 FEET WITH NO
SIGNIFICANT WEATHER AND/OR OBSTRUCTIONS TO VISIBILITY.

ARZ001-003-010-029-190500-
NORTHWEST ARKANSAS

CITY           SKY/WX    TMP DP  RH WIND       PRES   REMARKS
FAYETTEVILLE   CLOUDY    31   7  36 CALM      30.25R
FORT SMITH     CLOUDY    28  13  53 CALM      30.30S
HARRISON       CLOUDY    28  10  46 SE9       30.22S WCI  19
BENTONVILLE    CLOUDY    31  10  41 SW6       30.25R WCI  25
ROGERS         CLOUDY    32  10  40 SW9       30.23S WCI  24
SILOAM SPGS    CLOUDY    29  10  45 S7        30.25R WCI  22
HIGHFILL       CLOUDY    30   7  37 SW3       30.24R
$$

ARZ004-005-016-190500-
NORTH CENTRAL ARKANSAS

CITY           SKY/WX    TMP DP  RH WIND       PRES   REMARKS
BATESVILLE     FAIR      29  18  63 VRB5      30.33S WCI  24
FLIPPIN        CLEAR     33   9  36 SW8       30.26S WCI  26
MTN HOME       CLOUDY    32  11  41 SW8       30.23F WCI  25
$$

ARZ040-041-190500-
WEST CENTRAL ARKANSAS

CITY           SKY/WX    TMP DP  RH WIND       PRES   REMARKS
MENA           CLOUDY    34  12  40 CALM      30.32F
MOUNT IDA      CLEAR     29  12  49 CALM      30.31F
$$

ARZ009-017-025-026-028-190500-
NORTHEAST ARKANSAS

CITY           SKY/WX    TMP DP  RH WIND       PRES   REMARKS
JONESBORO      FAIR      28  19  69 SW9       30.34F WCI  19
NEWPORT        FAIR      26  20  77 S10       30.35S WCI  16
WALNUT RIDGE   FAIR      26  21  81 S9        30.33S WCI  17
BLYTHEVILLE    FAIR      20  17  88 S9        30.35S WCI   9
$$

ARZ022-023-033-042-044-190500-
CENTRAL ARKANSAS

CITY           SKY/WX    TMP DP  RH WIND       PRES   REMARKS
LITTLE ROCK    FAIR      27  16  63 SW7       30.37R WCI  19
N LITTLE ROCK    N/A     32  19  57 SW7       30.33S WCI  26
JACKSONVILLE   FAIR      28  17  64 S5        30.34F WCI  22
SEARCY         FAIR      21  21 100 CALM      30.37S
HOT SPRINGS    FAIR      26  14  60 CALM      30.36S
RUSSELLVILLE   CLOUDY    30  12  47 SE3       30.32R
CLINTON        FAIR      19  14  79 CALM      30.33S
$$

ARZ036-190500-
EAST ARKANSAS

CITY           SKY/WX    TMP DP  RH WIND       PRES   REMARKS
WEST MEMPHIS   FAIR      21  18  88 S9        30.37S WCI  11
$$

ARZ050-053-066-070-073-190500-
SOUTHWEST ARKANSAS

CITY           SKY/WX    TMP DP  RH WIND       PRES   REMARKS
ARKADELPHIA    FAIR      21  18  88 CALM      30.39R
CAMDEN         FAIR      21  16  79 CALM      30.39S
TEXARKANA      FAIR      33  16  49 S9        30.36F WCI  25
EL DORADO      FAIR      25  19  78 CALM      30.40S
DE QUEEN       CLOUDY    22  17  81 CALM      30.35R
$$

ARZ056-057-069-190500-
SOUTHEAST ARKANSAS

CITY           SKY/WX    TMP DP  RH WIND       PRES   REMARKS
PINE BLUFF     FAIR      26  17  68 S8        30.39R WCI  18
STUTTGART      FAIR      27  21  78 S10       30.38R WCI  17
MONTICELLO     FAIR      30  16  56 S8        30.39F WCI  22

$$





USA.gov is the U.S. government's official web portal to all federal, state and local government web resources and services.